Regional Weather Roundup
Issued by NWS

Home | Current Version | Previous Version | Text Only | Print | Product List | Glossary Off
Versions: 1 2 3 4 5 6 7 8 9 10 11 12 13 14 15 16 17 18 19 20 21 22 23 24 25 26 27 28 29 30 31 32 33 34 35 36 37 38 39 40 41 42 43 44 45 46 47 48 49 50

000
ASUS43 KLMK 181810
RWRKY
KENTUCKY REGIONAL WEATHER ROUNDUP
NATIONAL WEATHER SERVICE LOUISVILLE KY
100 PM EST SAT NOV 18 2017

NOTE "FAIR" INDICATES FEW OR NO CLOUDS BELOW 12,000 FEET
WITH NO SIGNIFICANT WEATHER AND/OR OBSTRUCTIONS TO VISIBILITY.

KYZ001>023-026-027-061>063-070>075-181900-
WESTERN AND SOUTH CENTRAL KENTUCKY

CITY           SKY/WX    TMP DP  RH WIND       PRES   REMARKS
PADUCAH        CLOUDY    69  61  75 SW13G25   29.43F
HENDERSON      CLOUDY    67  61  81 S22G29    29.39F
OWENSBORO      CLOUDY    66  61  84 S24G32    29.42F
HOPKINSVILLE   LGT RAIN  65  62  89 SW15      29.52F
BOWLING GREEN  LGT RAIN  62  60  93 S17G24    29.55F FOG
GLASGOW        DRIZZLE   60  60  98 S17G23    29.57F
$$

KYZ024-025-028>034-038-045-046-053-181900-
NORTH CENTRAL KENTUCKY

CITY           SKY/WX    TMP DP  RH WIND       PRES   REMARKS
LOUISVILLE/SDF CLOUDY    67  58  72 S24G37    29.42F
LOUISVILLE/LOU CLOUDY    66  59  78 S22G36    29.44F
FORT KNOX      LGT RAIN  64  57  77 S25G36    29.43F
$$

KYZ035>037-039>044-047>052-055>060-089>105-181900-
NORTHEAST KENTUCKY

CITY           SKY/WX    TMP DP  RH WIND       PRES   REMARKS
LEXINGTON      CLOUDY    64  54  69 SW26G47   29.51F
COVINGTON      CLOUDY    64  58  80 SW29G46   29.33F
FRANKFORT      CLOUDY    65  54  67 S24G43    29.47F
$$

KYZ054-064>069-076>088-106>120-181900-
SOUTHEAST KENTUCKY

CITY           SKY/WX    TMP DP  RH WIND       PRES   REMARKS
JACKSON        CLOUDY    65  48  54 S10G20    29.59F
LONDON         CLOUDY    63  50  62 SW13G29   29.64F
SOMERSET       LGT RAIN  61  50  67 S9        29.65F
MIDDLESBORO    CLOUDY    60  47  62 S8G18     29.72F
MONTICELLO     LGT RAIN  62  54  74 S12G24    29.64F
$$




USA.gov is the U.S. government's official web portal to all federal, state and local government web resources and services.